Location: Deurze
(52.9838°N, 6.6090°E)
Time: 18:47:22
(UTC+00:00)

Cosmos 2344 - Pass Details

Date: 11 March 2026
Orbit: 1194 x 3048 km, 63.3° (Epoch: 20 April)

Event Time Altitude Azimuth Distance (km) Brightness Sun altitude
Rises 18:10:38 0° 276° (W) 4,154 9.0 -6.9°
Reaches altitude 10° 18:13:34 10° 284° (WNW) 3,142 7.3 -7.3°
Maximum altitude 18:20:17 40° 354° (N) 1,744 4.4 -8.3°
Drops below altitude 10° 18:27:43 10° 63° (ENE) 3,474 5.4 -9.4°
Enters shadow 18:29:13 - 67° (ENE) 3,985 5.7 -9.7°
